Saint Cloud, MN

1:30 PM CST on December 05, 2016 (GMT -0600)
Saint Cloud Regional

Weather History for KSTC - November, 2012

Change the Weather History Date:

Saturday, November 3, 2012

  Actual Average Record
Temperature  
Mean Temperature 36 °F 38 °F  
Max Temperature 39 °F 47 °F 74 °F (1978)
Min Temperature 32 °F 28 °F 0 °F (1991)
Degree Days  
Heating Degree Days 29 27  
Month to date heating degree days 96 80  
Since 1 July heating degree days 963 965  
Cooling Degree Days 0 0  
Month to date cooling degree days 0 0  
Year to date cooling degree days 739 465  
Moisture  
Dew Point 26 °F    
Average Humidity 70    
Maximum Humidity 75    
Minimum Humidity 64    
Precipitation  
Precipitation T in 0.05 in 0.48 in (1938)
Month to date precipitation T 0.15  
Year to date precipitation 22.46 25.68  
Snow  
Snow T in 0.10 in 3.00 in (2003)
Month to date snowfall T 0.4  
Since 1 July snowfall 0.3 1.2  
Since 1 September snowfall 0.3 1.2  
Snow Depth 0.00 in    
Sea Level Pressure  
Sea Level Pressure 30.25 in    
Wind  
Wind Speed 2 mph (East)    
Max Wind Speed 7 mph    
Max Gust Speed 9 mph    
Visibility 10 miles    
Events Snow    
T = Trace of Precipitation, MM = Missing Value Source: NWS Daily Summary

Daily Weather History Graph

Daily Weather History Graph

Search for Another Location

Airport or City:

Trip Planner

Search our weather history database for the weather conditions in past years. The results will help you decide how hot, cold, wet, or windy it might be!

Date:

Astronomy

Nov. 03, 2012 Rise Set
Actual Time 7:59 AM CDT 5:59 PM CDT
Civil Twilight 7:28 AM CDT 6:30 PM CDT
Nautical Twilight 6:53 AM CDT 7:05 PM CDT
Astronomical Twilight 6:18 AM CDT 7:40 PM CDT
Moon 9:36 PM CDT (11/3) 12:09 PM CDT (11/3)
Length of Visible Light 11h 02m
Length of Day
10h 00m
Waning Gibbous, 80% of the Moon is Illuminated
Nov 3
Waning Gibbous
Nov 6
Last Quarter
Nov 13
New
Nov 20
First Quarter
Nov 28
Full

Hourly Weather History & Observations

Time (CDT) Temp. Windchill Dew Point Humidity Pressure Visibility Wind Dir Wind Speed Gust Speed Precip Events Conditions
12:53 AM 34.0 °F - 25.0 °F 70% 30.22 in 10.0 mi Calm Calm - N/A   Overcast
1:53 AM 35.1 °F 32.2 °F 24.1 °F 64% 30.23 in 10.0 mi East 3.5 mph - N/A   Overcast
2:53 AM 35.1 °F 31.0 °F 24.1 °F 64% 30.22 in 10.0 mi ENE 4.6 mph - N/A   Overcast
3:53 AM 35.1 °F 31.0 °F 24.1 °F 64% 30.22 in 10.0 mi East 4.6 mph - N/A   Overcast
4:53 AM 34.0 °F 29.8 °F 24.1 °F 67% 30.22 in 10.0 mi ENE 4.6 mph - N/A   Overcast
5:53 AM 34.0 °F 31.0 °F 24.1 °F 67% 30.24 in 10.0 mi ENE 3.5 mph - N/A   Overcast
6:53 AM 33.1 °F 30.0 °F 23.0 °F 66% 30.25 in 10.0 mi ENE 3.5 mph - N/A   Overcast
7:53 AM 33.1 °F 30.0 °F 23.0 °F 66% 30.25 in 10.0 mi ENE 3.5 mph - N/A   Overcast
8:53 AM 32.0 °F 27.5 °F 23.0 °F 69% 30.26 in 10.0 mi ESE 4.6 mph - 0.00 in Snow Light Snow
9:53 AM 32.0 °F - 25.0 °F 75% 30.28 in 9.0 mi Calm Calm - 0.00 in Snow Light Snow
10:53 AM 34.0 °F 29.8 °F 25.0 °F 70% 30.27 in 10.0 mi East 4.6 mph - 0.00 in   Overcast
11:53 AM 35.1 °F - 26.1 °F 70% 30.28 in 10.0 mi Calm Calm - N/A   Overcast
12:53 PM 36.0 °F 33.3 °F 28.0 °F 73% 30.27 in 10.0 mi SE 3.5 mph - N/A   Overcast
1:53 PM 37.0 °F 34.5 °F 28.9 °F 73% 30.27 in 10.0 mi SSE 3.5 mph - N/A   Overcast
2:53 PM 37.9 °F 34.4 °F 28.9 °F 70% 30.26 in 10.0 mi SE 4.6 mph - N/A   Overcast
3:53 PM 37.9 °F 35.5 °F 28.0 °F 68% 30.26 in 10.0 mi SE 3.5 mph - N/A   Overcast
4:53 PM 37.9 °F - 28.0 °F 68% 30.25 in 10.0 mi Calm Calm - N/A   Overcast
5:53 PM 37.9 °F - 28.0 °F 68% 30.25 in 10.0 mi Calm Calm - N/A   Overcast
6:53 PM 37.0 °F - 28.0 °F 70% 30.26 in 10.0 mi Calm Calm - N/A   Overcast
7:53 PM 37.0 °F - 27.0 °F 67% 30.27 in 10.0 mi Calm Calm - N/A   Overcast
8:53 PM 37.0 °F - 27.0 °F 67% 30.27 in 10.0 mi Calm Calm - N/A   Overcast
9:53 PM 37.0 °F 34.5 °F 27.0 °F 67% 30.28 in 10.0 mi ENE 3.5 mph - N/A   Overcast
10:22 PM 37.4 °F 34.9 °F 26.6 °F 65% 30.22 in 10.0 mi ENE 3.5 mph - N/A   Overcast
10:53 PM 37.0 °F 34.5 °F 27.0 °F 67% 30.28 in 10.0 mi ENE 3.5 mph - N/A   Overcast
11:53 PM 37.0 °F - 27.0 °F 67% 30.28 in 10.0 mi Calm Calm - N/A   Overcast